Вернуться в каталог

STARLINK-4787

АктивенСвязьVLEO
NORAD 53904·PAYLOAD·🇺🇸 United States

Запущен Sep 24, 2022 с Cape Canaveral Space Force Station

Loading…

Ближайшие Пролёты (ближайшие 24 часа)

TLE

СвежийSource: CelesTrak SupGP

Эпоха: Sep 15, 2026, 01:20 UTC

1 53904C 22119U   26258.05604167 -.00018050  00000+0 -53378-3 0  2580
2 53904  53.1590 181.2496 0001229  82.9045 348.0694 15.34370670    10

Отслеживайте STARLINK-4787 в реальном времени с AllMySat

Download on the App Store